Time,TemperatureF,DewpointF,PressureIn,WindDirection,WindDirectionDegrees,WindSpeedMPH,WindSpeedGustMPH,Humidity,HourlyPrecipIn,Conditions,Clouds,dailyrainin,SoftwareType,DateUTC
2013-04-01 00:00:00,45.1,43.5,29.72,WNW,290,1.0,2.0,94,0.01,,CLR,0.00,VWS V14.00,2013-04-01 04:00:00,
2013-04-01 00:01:00,45.1,43.8,29.72,WNW,291,0.0,1.0,95,0.00,,,0.00,VWS V14.00,2013-04-01 04:01:00,
2013-04-01 00:02:00,45.1,43.8,29.72,WNW,290,0.0,1.0,95,0.00,,,0.00,VWS V14.00,2013-04-01 04:02:00,
2013-04-01 00:08:00,45.2,43.9,29.72,WNW,290,0.0,1.0,95,0.00,,,0.00,VWS V14.00,2013-04-01 04:08:00,
2013-04-01 00:11:00,45.2,43.9,29.72,WNW,290,0.0,1.0,95,0.00,,,0.00,VWS V14.00,2013-04-01 04:11:00,
2013-04-01 00:13:00,45.2,43.9,29.72,WNW,290,0.0,1.0,95,0.00,,,0.00,VWS V14.00,2013-04-01 04:13:00,
2013-04-01 00:18:00,45.3,44.0,29.71,SW,226,1.0,4.0,95,0.00,,,0.00,VWS V14.00,2013-04-01 04:18:00,
2013-04-01 00:23:00,45.3,44.0,29.72,West,274,0.0,4.0,95,0.00,,SCT017,0.00,VWS V14.00,2013-04-01 04:23:00,
2013-04-01 00:29:00,45.4,44.0,29.72,SW,214,0.0,4.0,95,0.00,,SCT017,0.00,VWS V14.00,2013-04-01 04:29:00,
2013-04-01 00:30:00,45.4,44.1,29.72,SW,214,0.0,4.0,95,0.00,,CLR,0.00,VWS V14.00,2013-04-01 04:30:00,
2013-04-01 00:34:00,45.5,44.2,29.71,West,262,1.0,4.0,95,0.00,,SCT017,0.00,VWS V14.00,2013-04-01 04:34:00,
2013-04-01 00:39:00,45.6,44.2,29.72,West,271,0.0,4.0,95,0.00,,SCT017,0.00,VWS V14.00,2013-04-01 04:39:00,
2013-04-01 00:44:00,45.8,44.5,29.72,WNW,288,2.0,4.0,95,0.00,,BKN024,0.00,VWS V14.00,2013-04-01 04:44:00,
2013-04-01 00:49:00,46.0,44.7,29.71,WNW,289,3.0,5.0,95,0.00,,BKN024,0.00,VWS V14.00,2013-04-01 04:49:00,
2013-04-01 00:54:00,46.1,44.5,29.72,WNW,300,2.0,6.0,94,0.00,,BKN024,0.00,VWS V14.00,2013-04-01 04:54:00,
2013-04-01 01:00:00,46.1,44.5,29.72,WNW,288,1.0,6.0,94,0.00,,BKN024,0.00,VWS V14.00,2013-04-01 05:00:00,
2013-04-01 01:05:00,46.2,44.6,29.72,WNW,297,2.0,4.0,94,0.00,,BKN022,0.00,VWS V14.00,2013-04-01 05:05:00,
2013-04-01 01:10:00,46.0,44.1,29.71,NW,310,3.0,4.0,93,0.00,,BKN022,0.00,VWS V14.00,2013-04-01 05:10:00,
2013-04-01 01:15:00,46.1,44.2,29.72,WNW,293,1.0,4.0,93,0.00,,BKN022,0.00,VWS V14.00,2013-04-01 05:15:00,
2013-04-01 01:21:00,46.1,44.2,29.72,West,272,1.0,4.0,93,0.00,,BKN022,0.00,VWS V14.00,2013-04-01 05:21:00,
2013-04-01 01:26:00,46.0,44.1,29.72,West,277,2.0,5.0,93,0.00,,BKN022,0.00,VWS V14.00,2013-04-01 05:26:00,
2013-04-01 01:30:00,45.9,44.0,29.72,WSW,250,1.0,5.0,93,0.00,,CLR,0.00,VWS V14.00,2013-04-01 05:30:00,
2013-04-01 01:32:00,45.9,44.0,29.72,WSW,238,0.0,3.0,93,0.00,,BKN022,0.00,VWS V14.00,2013-04-01 05:32:00,
2013-04-01 01:37:00,45.8,43.9,29.72,SSE,153,0.0,5.0,93,0.00,,BKN022,0.00,VWS V14.00,2013-04-01 05:37:00,
2013-04-01 01:42:00,45.5,43.6,29.72,South,175,0.0,5.0,93,0.00,,BKN022,0.00,VWS V14.00,2013-04-01 05:42:00,
2013-04-01 01:47:00,45.2,43.3,29.72,South,186,1.0,5.0,93,0.00,,BKN022,0.00,VWS V14.00,2013-04-01 05:47:00,
2013-04-01 01:52:00,44.9,43.0,29.73,SSW,207,0.0,5.0,93,0.00,,SCT018,0.00,VWS V14.00,2013-04-01 05:52:00,
2013-04-01 01:58:00,44.6,42.7,29.73,WSW,257,0.0,5.0,93,0.00,,SCT018,0.00,VWS V14.00,2013-04-01 05:58:00,
2013-04-01 02:00:00,44.6,42.7,29.73,WSW,243,1.0,5.0,93,0.00,,CLR,0.00,VWS V14.00,2013-04-01 06:00:00,
2013-04-01 02:03:00,44.6,42.7,29.73,WSW,246,1.0,2.0,93,0.00,,CLR,0.00,VWS V14.00,2013-04-01 06:03:00,
2013-04-01 02:08:00,44.7,43.1,29.73,WSW,240,2.0,4.0,94,0.00,,CLR,0.00,VWS V14.00,2013-04-01 06:08:00,
2013-04-01 02:13:00,44.8,42.9,29.73,SW,214,1.0,5.0,93,0.00,,CLR,0.00,VWS V14.00,2013-04-01 06:13:00,
2013-04-01 02:18:00,44.8,43.2,29.73,SW,225,1.0,5.0,94,0.00,,CLR,0.00,VWS V14.00,2013-04-01 06:18:00,
2013-04-01 02:23:00,44.8,43.2,29.73,WSW,243,1.0,5.0,94,0.00,,CLR,0.00,VWS V14.00,2013-04-01 06:23:00,
2013-04-01 02:28:00,44.8,42.9,29.73,SW,217,0.0,5.0,93,0.00,,CLR,0.00,VWS V14.00,2013-04-01 06:28:00,
2013-04-01 02:30:00,44.8,43.2,29.73,SW,217,0.0,5.0,94,0.00,,CLR,0.00,VWS V14.00,2013-04-01 06:30:00,
2013-04-01 02:34:00,44.6,42.7,29.73,SSW,207,1.0,1.0,93,0.00,,CLR,0.00,VWS V14.00,2013-04-01 06:34:00,
2013-04-01 02:39:00,44.4,42.5,29.73,SSW,207,0.0,3.0,93,0.00,,CLR,0.00,VWS V14.00,2013-04-01 06:39:00,
2013-04-01 02:44:00,44.4,42.8,29.73,WNW,285,3.0,3.0,94,0.00,,CLR,0.00,VWS V14.00,2013-04-01 06:44:00,
2013-04-01 02:49:00,44.6,43.0,29.73,SW,217,0.0,4.0,94,0.00,,CLR,0.00,VWS V14.00,2013-04-01 06:49:00,
2013-04-01 02:55:00,44.8,43.2,29.73,WNW,291,1.0,7.0,94,0.00,,CLR,0.00,VWS V14.00,2013-04-01 06:55:00,
2013-04-01 03:00:00,44.9,43.3,29.73,WSW,248,1.0,1.0,94,0.00,,CLR,0.00,VWS V14.00,2013-04-01 07:00:00,
2013-04-01 03:05:00,44.9,43.3,29.73,WSW,242,0.0,3.0,94,0.00,,CLR,0.00,VWS V14.00,2013-04-01 07:05:00,
2013-04-01 03:10:00,44.9,43.0,29.73,WNW,282,1.0,3.0,93,0.00,,CLR,0.00,VWS V14.00,2013-04-01 07:10:00,
2013-04-01 03:15:00,44.9,43.0,29.73,WSW,255,1.0,3.0,93,0.00,,CLR,0.00,VWS V14.00,2013-04-01 07:15:00,
2013-04-01 03:20:00,45.0,43.1,29.73,West,272,0.0,4.0,93,0.00,,CLR,0.00,VWS V14.00,2013-04-01 07:20:00,
2013-04-01 03:25:00,44.9,42.7,29.73,West,273,2.0,4.0,92,0.00,,CLR,0.00,VWS V14.00,2013-04-01 07:25:00,
2013-04-01 03:30:00,44.5,42.3,29.73,SSE,166,2.0,3.0,92,0.00,,CLR,0.00,VWS V14.00,2013-04-01 07:30:00,
2013-04-01 03:36:00,44.3,42.1,29.73,SSW,197,0.0,3.0,92,0.00,,CLR,0.00,VWS V14.00,2013-04-01 07:36:00,
2013-04-01 03:41:00,43.9,41.7,29.73,SSW,210,1.0,3.0,92,0.00,,CLR,0.00,VWS V14.00,2013-04-01 07:41:00,
2013-04-01 03:47:00,43.7,41.8,29.73,SW,225,1.0,3.0,93,0.00,,CLR,0.00,VWS V14.00,2013-04-01 07:47:00,
2013-04-01 03:52:00,43.6,41.7,29.73,WSW,252,1.0,3.0,93,0.00,,CLR,0.00,VWS V14.00,2013-04-01 07:52:00,
2013-04-01 03:57:00,43.5,41.6,29.73,SSW,200,1.0,3.0,93,0.00,,CLR,0.00,VWS V14.00,2013-04-01 07:57:00,
2013-04-01 04:00:00,43.4,41.5,29.73,SSW,200,0.0,3.0,93,0.00,,CLR,0.00,VWS V14.00,2013-04-01 08:00:00,
2013-04-01 04:03:00,43.3,41.4,29.73,SSW,201,1.0,2.0,93,0.00,,,0.00,VWS V14.00,2013-04-01 08:03:00,
2013-04-01 04:08:00,43.1,41.2,29.73,South,176,0.0,2.0,93,0.00,,,0.00,VWS V14.00,2013-04-01 08:08:00,
2013-04-01 04:13:00,42.6,40.7,29.74,South,176,1.0,2.0,93,0.00,,,0.00,VWS V14.00,2013-04-01 08:13:00,
2013-04-01 04:18:00,42.3,40.7,29.74,South,176,1.0,2.0,94,0.00,,,0.00,VWS V14.00,2013-04-01 08:18:00,
2013-04-01 04:24:00,42.3,40.7,29.74,SSW,192,2.0,2.0,94,0.00,,,0.00,VWS V14.00,2013-04-01 08:24:00,
2013-04-01 04:29:00,42.2,40.6,29.74,South,176,2.0,2.0,94,0.00,,,0.00,VWS V14.00,2013-04-01 08:29:00,
2013-04-01 04:30:00,42.2,40.6,29.74,South,174,2.0,3.0,94,0.00,,CLR,0.00,VWS V14.00,2013-04-01 08:30:00,
2013-04-01 04:34:00,42.3,41.0,29.74,SSW,202,2.0,3.0,95,0.00,,,0.00,VWS V14.00,2013-04-01 08:34:00,
2013-04-01 04:39:00,42.5,41.2,29.74,SSW,195,2.0,3.0,95,0.00,,,0.00,VWS V14.00,2013-04-01 08:39:00,
2013-04-01 04:45:00,42.6,41.3,29.74,SW,217,1.0,3.0,95,0.00,,,0.00,VWS V14.00,2013-04-01 08:45:00,
2013-04-01 04:50:00,42.6,41.3,29.74,WSW,253,0.0,3.0,95,0.00,,,0.00,VWS V14.00,2013-04-01 08:50:00,
2013-04-01 04:55:00,42.6,41.3,29.74,SW,233,2.0,3.0,95,0.00,,,0.00,VWS V14.00,2013-04-01 08:55:00,
2013-04-01 05:00:00,42.5,41.2,29.74,WSW,256,0.0,0.0,95,0.00,,,0.00,VWS V14.00,2013-04-01 09:00:00,
2013-04-01 05:05:00,42.7,41.4,29.74,West,266,2.0,2.0,95,0.00,,,0.00,VWS V14.00,2013-04-01 09:05:00,
2013-04-01 05:10:00,42.8,41.5,29.74,WSW,248,1.0,2.0,95,0.00,,,0.00,VWS V14.00,2013-04-01 09:10:00,
2013-04-01 05:16:00,43.1,41.8,29.74,WSW,257,1.0,4.0,95,0.00,,,0.00,VWS V14.00,2013-04-01 09:16:00,
2013-04-01 05:21:00,43.4,42.1,29.74,WSW,253,1.0,4.0,95,0.00,,,0.00,VWS V14.00,2013-04-01 09:21:00,
2013-04-01 05:26:00,43.5,42.2,29.74,WNW,297,2.0,4.0,95,0.00,,,0.00,VWS V14.00,2013-04-01 09:26:00,
2013-04-01 05:30:00,43.3,42.0,29.74,West,281,1.0,4.0,95,0.00,,CLR,0.00,VWS V14.00,2013-04-01 09:30:00,
2013-04-01 05:32:00,43.2,41.6,29.74,SW,219,0.0,3.0,94,0.00,,,0.00,VWS V14.00,2013-04-01 09:32:00,
2013-04-01 05:37:00,42.8,41.2,29.74,SSW,210,1.0,3.0,94,0.00,,,0.00,VWS V14.00,2013-04-01 09:37:00,
2013-04-01 05:42:00,42.6,41.0,29.74,WSW,248,0.0,3.0,94,0.00,,,0.00,VWS V14.00,2013-04-01 09:42:00,
2013-04-01 05:48:00,42.5,40.9,29.74,West,264,0.0,3.0,94,0.00,,,0.00,VWS V14.00,2013-04-01 09:48:00,
2013-04-01 05:53:00,42.4,40.8,29.74,SW,236,0.0,3.0,94,0.00,,,0.00,VWS V14.00,2013-04-01 09:53:00,
2013-04-01 05:58:00,42.3,40.7,29.74,SSW,204,1.0,3.0,94,0.00,,,0.00,VWS V14.00,2013-04-01 09:58:00,
2013-04-01 06:00:00,42.3,41.0,29.74,SW,232,1.0,3.0,95,0.00,,CLR,0.00,VWS V14.00,2013-04-01 10:00:00,
2013-04-01 06:03:00,42.2,40.6,29.74,West,260,0.0,1.0,94,0.00,,,0.00,VWS V14.00,2013-04-01 10:03:00,
2013-04-01 06:09:00,42.0,40.4,29.74,SW,215,0.0,2.0,94,0.00,,,0.00,VWS V14.00,2013-04-01 10:09:00,
2013-04-01 06:14:00,41.9,40.6,29.74,SW,223,1.0,2.0,95,0.00,,,0.00,VWS V14.00,2013-04-01 10:14:00,
2013-04-01 06:19:00,41.7,40.4,29.74,SW,229,1.0,2.0,95,0.00,,,0.00,VWS V14.00,2013-04-01 10:19:00,
2013-04-01 06:25:00,41.8,40.5,29.74,SSE,165,2.0,3.0,95,0.00,,,0.00,VWS V14.00,2013-04-01 10:25:00,
2013-04-01 06:30:00,41.8,40.5,29.74,SW,236,2.0,4.0,95,0.00,,,0.00,VWS V14.00,2013-04-01 10:30:00,
2013-04-01 06:35:00,41.7,40.4,29.73,SSW,201,2.0,3.0,95,0.00,,,0.00,VWS V14.00,2013-04-01 10:35:00,
2013-04-01 06:40:00,41.7,40.4,29.73,SSW,208,0.0,3.0,95,0.00,,,0.00,VWS V14.00,2013-04-01 10:40:00,
2013-04-01 06:45:00,41.5,40.2,29.73,SSW,208,0.0,3.0,95,0.00,,,0.00,VWS V14.00,2013-04-01 10:45:00,
2013-04-01 06:51:00,41.4,40.1,29.73,SSW,208,0.0,3.0,95,0.00,,,0.00,VWS V14.00,2013-04-01 10:51:00,
2013-04-01 06:56:00,41.5,40.2,29.73,SSW,193,0.0,3.0,95,0.00,,,0.00,VWS V14.00,2013-04-01 10:56:00,
2013-04-01 07:00:00,41.6,40.3,29.73,WSW,258,1.0,3.0,95,0.00,,CLR,0.00,VWS V14.00,2013-04-01 11:00:00,
2013-04-01 07:01:00,41.6,40.3,29.73,WSW,243,0.0,1.0,95,0.00,,,0.00,VWS V14.00,2013-04-01 11:01:00,
2013-04-01 07:06:00,41.7,40.4,29.73,WSW,252,0.0,1.0,95,0.00,,,0.00,VWS V14.00,2013-04-01 11:06:00,
2013-04-01 07:12:00,41.6,40.3,29.73,WSW,239,2.0,2.0,95,0.00,,,0.00,VWS V14.00,2013-04-01 11:12:00,
2013-04-01 07:17:00,41.9,40.6,29.74,West,266,1.0,2.0,95,0.00,,,0.00,VWS V14.00,2013-04-01 11:17:00,
2013-04-01 07:22:00,42.2,40.9,29.74,WSW,255,2.0,3.0,95,0.00,,,0.00,VWS V14.00,2013-04-01 11:22:00,
2013-04-01 07:27:00,42.5,41.4,29.74,WSW,250,1.0,4.0,96,0.00,,,0.00,VWS V14.00,2013-04-01 11:27:00,
2013-04-01 07:30:00,42.6,41.5,29.74,WSW,258,0.0,4.0,96,0.00,,CLR,0.00,VWS V14.00,2013-04-01 11:30:00,
2013-04-01 07:33:00,42.8,41.7,29.74,WNW,283,0.0,4.0,96,0.00,,,0.00,VWS V14.00,2013-04-01 11:33:00,
2013-04-01 07:38:00,42.9,41.6,29.74,WSW,239,1.0,5.0,95,0.00,,,0.00,VWS V14.00,2013-04-01 11:38:00,
2013-04-01 07:43:00,43.1,41.8,29.74,WSW,239,6.0,6.0,95,0.00,,,0.00,VWS V14.00,2013-04-01 11:43:00,
2013-04-01 07:48:00,43.3,42.0,29.74,West,276,1.0,6.0,95,0.00,,,0.00,VWS V14.00,2013-04-01 11:48:00,
2013-04-01 07:54:00,43.4,42.1,29.74,SSE,166,0.0,6.0,95,0.00,,,0.00,VWS V14.00,2013-04-01 11:54:00,
2013-04-01 07:59:00,43.6,42.3,29.74,SSW,210,1.0,6.0,95,0.00,,,0.00,VWS V14.00,2013-04-01 11:59:00,
2013-04-01 08:00:00,43.7,42.4,29.74,SSW,210,1.0,6.0,95,0.00,,CLR,0.00,VWS V14.00,2013-04-01 12:00:00,
2013-04-01 08:04:00,44.1,42.8,29.74,SSW,210,1.0,2.0,95,0.00,,,0.00,VWS V14.00,2013-04-01 12:04:00,
2013-04-01 08:09:00,44.6,43.3,29.73,SSW,208,0.0,2.0,95,0.00,,,0.00,VWS V14.00,2013-04-01 12:09:00,
2013-04-01 08:15:00,45.3,44.0,29.73,ESE,118,1.0,2.0,95,0.00,,,0.00,VWS V14.00,2013-04-01 12:15:00,
2013-04-01 08:20:00,45.7,44.3,29.73,SSW,194,2.0,3.0,95,0.00,,,0.00,VWS V14.00,2013-04-01 12:20:00,
2013-04-01 08:25:00,46.3,44.7,29.74,South,181,2.0,3.0,94,0.00,,,0.00,VWS V14.00,2013-04-01 12:25:00,
2013-04-01 08:30:00,46.9,45.3,29.73,SSW,201,0.0,1.0,94,0.00,,,0.00,VWS V14.00,2013-04-01 12:30:00,
2013-04-01 08:35:00,47.3,45.1,29.73,WSW,246,2.0,4.0,92,0.00,,,0.00,VWS V14.00,2013-04-01 12:35:00,
2013-04-01 08:41:00,47.7,45.5,29.73,South,172,1.0,4.0,92,0.00,,,0.00,VWS V14.00,2013-04-01 12:41:00,
2013-04-01 08:46:00,48.3,45.5,29.73,South,191,3.0,4.0,90,0.00,,,0.00,VWS V14.00,2013-04-01 12:46:00,
2013-04-01 08:51:00,49.1,46.3,29.73,SW,214,1.0,4.0,90,0.00,,,0.00,VWS V14.00,2013-04-01 12:51:00,
2013-04-01 08:56:00,49.6,46.2,29.73,SW,232,1.0,4.0,88,0.00,,,0.00,VWS V14.00,2013-04-01 12:56:00,
2013-04-01 09:00:00,50.2,47.1,29.73,SSW,201,2.0,4.0,89,0.00,,CLR,0.00,VWS V14.00,2013-04-01 13:00:00,
2013-04-01 09:01:00,50.4,47.0,29.73,WSW,243,2.0,4.0,88,0.00,,,0.00,VWS V14.00,2013-04-01 13:01:00,
2013-04-01 09:06:00,51.0,47.3,29.73,SSW,201,2.0,4.0,87,0.00,,,0.00,VWS V14.00,2013-04-01 13:06:00,
2013-04-01 09:12:00,51.5,46.8,29.73,WSW,249,4.0,6.0,84,0.00,,,0.00,VWS V14.00,2013-04-01 13:12:00,
2013-04-01 09:17:00,51.9,47.5,29.73,SSW,193,3.0,6.0,85,0.00,,,0.00,VWS V14.00,2013-04-01 13:17:00,
2013-04-01 09:22:00,52.1,46.8,29.73,SW,218,4.0,7.0,82,0.00,,,0.00,VWS V14.00,2013-04-01 13:22:00,
2013-04-01 09:28:00,52.5,46.5,29.72,SSW,208,4.0,8.0,80,0.00,,,0.00,VWS V14.00,2013-04-01 13:28:00,
2013-04-01 09:30:00,52.6,47.9,29.72,WSW,246,4.0,8.0,84,0.00,,CLR,0.00,VWS V14.00,2013-04-01 13:30:00,
2013-04-01 09:33:00,52.8,46.8,29.72,WNW,301,2.0,8.0,80,0.00,,,0.00,VWS V14.00,2013-04-01 13:33:00,
2013-04-01 09:38:00,53.0,46.7,29.72,SSW,212,3.0,8.0,79,0.00,,,0.00,VWS V14.00,2013-04-01 13:38:00,
2013-04-01 09:44:00,53.2,46.9,29.71,SSW,204,1.0,8.0,79,0.00,,,0.00,VWS V14.00,2013-04-01 13:44:00,
2013-04-01 09:49:00,53.8,47.1,29.72,SSW,213,3.0,8.0,78,0.00,,,0.00,VWS V14.00,2013-04-01 13:49:00,
2013-04-01 09:54:00,54.3,47.2,29.72,WSW,238,2.0,8.0,77,0.00,,,0.00,VWS V14.00,2013-04-01 13:54:00,
2013-04-01 09:59:00,54.5,47.1,29.72,SSW,212,4.0,9.0,76,0.00,,,0.00,VWS V14.00,2013-04-01 13:59:00,
2013-04-01 10:00:00,54.5,47.1,29.72,SSW,203,7.0,10.0,76,0.00,,CLR,0.00,VWS V14.00,2013-04-01 14:00:00,
2013-04-01 10:04:00,54.3,45.8,29.72,WSW,248,8.0,11.0,73,0.00,,CLR,0.00,VWS V14.00,2013-04-01 14:04:00,
2013-04-01 10:30:00,52.6,47.9,29.72,WSW,246,4.0,8.0,84,0.00,,OVC046,0.00,VWS V14.00,2013-04-01 14:30:00,
2013-04-01 10:54:00,57.0,44.5,29.71,WNW,293,6.0,6.0,63,0.00,,CLR,0.00,VWS V14.00,2013-04-01 14:54:00,
2013-04-01 10:59:00,57.0,45.0,29.71,WNW,298,5.0,10.0,64,0.00,,CLR,0.00,VWS V14.00,2013-04-01 14:59:00,
2013-04-01 11:00:00,57.1,45.0,29.71,WNW,288,6.0,10.0,64,0.00,,CLR,0.00,VWS V14.00,2013-04-01 15:00:00,
2013-04-01 11:04:00,57.4,45.8,29.71,SSW,198,3.0,8.0,65,0.00,,FEW038,0.00,VWS V14.00,2013-04-01 15:04:00,
2013-04-01 11:10:00,57.8,44.9,29.71,WSW,243,7.0,12.0,62,0.00,,FEW038,0.00,VWS V14.00,2013-04-01 15:10:00,
2013-04-01 11:15:00,58.1,44.7,29.70,West,266,7.0,13.0,61,0.00,,FEW038,0.00,VWS V14.00,2013-04-01 15:15:00,
2013-04-01 11:20:00,58.2,45.3,29.71,NNW,331,2.0,15.0,62,0.00,,FEW038,0.00,VWS V14.00,2013-04-01 15:20:00,
2013-04-01 11:25:00,58.7,44.9,29.70,West,278,2.0,15.0,60,0.00,,FEW038,0.00,VWS V14.00,2013-04-01 15:25:00,
2013-04-01 11:30:00,59.0,44.3,29.70,West,267,6.0,15.0,58,0.00,,CLR,0.00,VWS V14.00,2013-04-01 15:30:00,
2013-04-01 11:31:00,59.0,43.8,29.70,West,263,6.0,8.0,57,0.00,,FEW038,0.00,VWS V14.00,2013-04-01 15:31:00,
2013-04-01 11:36:00,59.1,43.4,29.70,West,259,4.0,15.0,56,0.00,,FEW038,0.00,VWS V14.00,2013-04-01 15:36:00,
2013-04-01 11:42:00,59.2,43.1,29.70,WNW,289,8.0,15.0,55,0.00,,FEW038,0.00,VWS V14.00,2013-04-01 15:42:00,
2013-04-01 11:47:00,59.4,43.7,29.70,SW,217,5.0,18.0,56,0.00,,FEW038,0.00,VWS V14.00,2013-04-01 15:47:00,
2013-04-01 11:52:00,59.5,42.9,29.70,WNW,302,9.0,18.0,54,0.00,,FEW038,0.00,VWS V14.00,2013-04-01 15:52:00,
2013-04-01 11:57:00,59.4,42.3,29.69,West,276,8.0,18.0,53,0.00,,FEW038,0.00,VWS V14.00,2013-04-01 15:57:00,
2013-04-01 12:00:00,59.5,43.8,29.69,SW,224,11.0,18.0,56,0.00,,CLR,0.00,VWS V14.00,2013-04-01 16:00:00,
2013-04-01 12:03:00,59.4,43.2,29.69,West,270,5.0,12.0,55,0.00,,FEW048,0.00,VWS V14.00,2013-04-01 16:03:00,
2013-04-01 12:08:00,59.8,42.7,29.69,WNW,284,8.0,13.0,53,0.00,,FEW048,0.00,VWS V14.00,2013-04-01 16:08:00,
2013-04-01 12:13:00,60.3,42.1,29.69,West,263,6.0,13.0,51,0.00,,FEW048,0.00,VWS V14.00,2013-04-01 16:13:00,
2013-04-01 12:19:00,60.9,43.2,29.69,West,271,6.0,13.0,52,0.00,,FEW048,0.00,VWS V14.00,2013-04-01 16:19:00,
2013-04-01 12:24:00,61.0,40.7,29.69,WSW,246,5.0,17.0,47,0.00,,FEW048,0.00,VWS V14.00,2013-04-01 16:24:00,
2013-04-01 12:29:00,60.3,41.1,29.69,West,280,10.0,17.0,49,0.00,,FEW048,0.00,VWS V14.00,2013-04-01 16:29:00,
2013-04-01 12:30:00,60.3,41.1,29.69,NNW,335,8.0,17.0,49,0.00,,CLR,0.00,VWS V14.00,2013-04-01 16:30:00,
2013-04-01 12:34:00,60.9,41.6,29.68,West,276,7.0,13.0,49,0.00,,FEW048,0.00,VWS V14.00,2013-04-01 16:34:00,
2013-04-01 12:39:00,61.6,42.3,29.68,West,259,7.0,13.0,49,0.00,,FEW048,0.00,VWS V14.00,2013-04-01 16:39:00,
2013-04-01 12:45:00,62.6,41.5,29.68,WSW,252,6.0,13.0,46,0.00,,FEW048,0.00,VWS V14.00,2013-04-01 16:45:00,
2013-04-01 12:50:00,62.5,40.9,29.68,West,274,11.0,16.0,45,0.00,,FEW048,0.00,VWS V14.00,2013-04-01 16:50:00,
2013-04-01 12:55:00,61.5,39.4,29.68,WNW,298,8.0,21.0,44,0.00,,FEW048,0.00,VWS V14.00,2013-04-01 16:55:00,
2013-04-01 13:00:00,60.8,39.3,29.68,SW,236,9.0,21.0,45,0.00,,CLR,0.00,VWS V14.00,2013-04-01 17:00:00,
2013-04-01 13:01:00,60.6,39.2,29.68,WSW,256,6.0,9.0,45,0.00,,FEW060,0.00,VWS V14.00,2013-04-01 17:01:00,
2013-04-01 13:06:00,60.7,41.5,29.67,WNW,293,8.0,14.0,49,0.00,,FEW060,0.00,VWS V14.00,2013-04-01 17:06:00,
2013-04-01 13:11:00,61.4,42.1,29.67,WSW,238,9.0,14.0,49,0.00,,FEW060,0.00,VWS V14.00,2013-04-01 17:11:00,
2013-04-01 13:16:00,62.5,43.6,29.67,WNW,300,6.0,15.0,50,0.00,,FEW060,0.00,VWS V14.00,2013-04-01 17:16:00,
2013-04-01 13:21:00,62.6,43.7,29.66,WNW,294,7.0,16.0,50,0.00,,FEW060,0.00,VWS V14.00,2013-04-01 17:21:00,
2013-04-01 13:27:00,62.1,41.1,29.66,West,266,5.0,17.0,46,0.00,,FEW060,0.00,VWS V14.00,2013-04-01 17:27:00,
2013-04-01 13:30:00,61.8,41.9,29.66,West,277,4.0,17.0,48,0.00,,CLR,0.00,VWS V14.00,2013-04-01 17:30:00,
2013-04-01 13:32:00,61.4,39.3,29.66,West,267,3.0,15.0,44,0.00,,FEW060,0.00,VWS V14.00,2013-04-01 17:32:00,
2013-04-01 13:37:00,61.2,40.8,29.66,NW,319,5.0,19.0,47,0.00,,FEW060,0.00,VWS V14.00,2013-04-01 17:37:00,
2013-04-01 13:42:00,60.9,41.6,29.66,WNW,290,3.0,19.0,49,0.00,,FEW060,0.00,VWS V14.00,2013-04-01 17:42:00,
2013-04-01 13:48:00,60.8,41.0,29.67,WSW,250,9.0,19.0,48,0.00,,FEW060,0.00,VWS V14.00,2013-04-01 17:48:00,
2013-04-01 13:53:00,60.9,41.1,29.66,WNW,294,6.0,19.0,48,0.00,,FEW060,0.00,VWS V14.00,2013-04-01 17:53:00,
2013-04-01 13:58:00,61.3,42.0,29.66,NW,315,10.0,19.0,49,0.00,,FEW060,0.00,VWS V14.00,2013-04-01 17:58:00,
2013-04-01 14:00:00,61.7,41.8,29.66,NNE,23,7.0,19.0,48,0.00,,CLR,0.00,VWS V14.00,2013-04-01 18:00:00,
2013-04-01 14:03:00,62.4,41.9,29.66,WSW,248,3.0,14.0,47,0.00,,OVC075,0.00,VWS V14.00,2013-04-01 18:03:00,
2013-04-01 14:08:00,62.4,40.8,29.67,WNW,297,15.0,15.0,45,0.00,,OVC075,0.00,VWS V14.00,2013-04-01 18:08:00,
2013-04-01 14:14:00,61.3,40.4,29.67,WNW,298,9.0,15.0,46,0.00,,OVC075,0.00,VWS V14.00,2013-04-01 18:14:00,
2013-04-01 14:19:00,61.0,40.7,29.66,NW,326,11.0,17.0,47,0.00,,OVC075,0.00,VWS V14.00,2013-04-01 18:19:00,
2013-04-01 14:24:00,60.9,41.1,29.66,NW,311,6.0,17.0,48,0.00,,OVC075,0.00,VWS V14.00,2013-04-01 18:24:00,
2013-04-01 14:29:00,61.2,40.8,29.67,SW,233,8.0,18.0,47,0.00,,OVC075,0.00,VWS V14.00,2013-04-01 18:29:00,
2013-04-01 14:30:00,61.3,40.9,29.66,NNW,330,8.0,18.0,47,0.00,,CLR,0.00,VWS V14.00,2013-04-01 18:30:00,
2013-04-01 14:34:00,61.1,40.2,29.66,WNW,300,14.0,23.0,46,0.00,,OVC075,0.00,VWS V14.00,2013-04-01 18:34:00,
2013-04-01 14:39:00,61.1,40.7,29.67,WSW,243,8.0,23.0,47,0.00,,OVC075,0.00,VWS V14.00,2013-04-01 18:39:00,
2013-04-01 14:45:00,61.0,39.5,29.67,WNW,285,6.0,23.0,45,0.00,,OVC075,0.00,VWS V14.00,2013-04-01 18:45:00,
2013-04-01 14:50:00,61.1,39.6,29.67,WNW,297,17.0,23.0,45,0.00,,OVC075,0.00,VWS V14.00,2013-04-01 18:50:00,
2013-04-01 14:55:00,60.3,37.7,29.67,WNW,298,6.0,23.0,43,0.00,,OVC075,0.00,VWS V14.00,2013-04-01 18:55:00,
2013-04-01 15:00:00,60.0,38.6,29.67,West,279,11.0,23.0,45,0.00,,CLR,0.00,VWS V14.00,2013-04-01 19:00:00,
2013-04-01 15:01:00,60.0,38.6,29.67,WNW,300,3.0,11.0,45,0.00,,FEW055,0.00,VWS V14.00,2013-04-01 19:01:00,
2013-04-01 15:06:00,59.0,40.4,29.67,North,354,5.0,18.0,50,0.00,,FEW055,0.00,VWS V14.00,2013-04-01 19:06:00,
2013-04-01 15:12:00,58.5,41.0,29.67,NNW,331,4.0,18.0,52,0.00,,FEW055,0.00,VWS V14.00,2013-04-01 19:12:00,
2013-04-01 15:17:00,58.5,40.5,29.68,NNW,346,16.0,18.0,51,0.00,,FEW055,0.00,VWS V14.00,2013-04-01 19:17:00,
2013-04-01 15:22:00,57.7,40.2,29.67,NW,326,12.0,18.0,52,0.00,,FEW055,0.00,VWS V14.00,2013-04-01 19:22:00,
2013-04-01 15:27:00,57.0,40.1,29.68,WNW,295,7.0,18.0,53,0.00,,FEW055,0.00,VWS V14.00,2013-04-01 19:27:00,
2013-04-01 15:30:00,56.7,40.3,29.68,NNW,329,8.0,18.0,54,0.00,,CLR,0.00,VWS V14.00,2013-04-01 19:30:00,
2013-04-01 15:32:00,56.4,40.0,29.68,NW,315,8.0,17.0,54,0.00,,FEW055,0.00,VWS V14.00,2013-04-01 19:32:00,
2013-04-01 15:37:00,55.7,39.3,29.68,WSW,245,4.0,17.0,54,0.00,,FEW055,0.00,VWS V14.00,2013-04-01 19:37:00,
2013-04-01 15:43:00,55.3,39.4,29.69,WNW,298,5.0,17.0,55,0.00,,FEW055,0.00,VWS V14.00,2013-04-01 19:43:00,
2013-04-01 15:48:00,55.0,39.2,29.70,NW,307,14.0,17.0,55,0.00,,FEW055,0.00,VWS V14.00,2013-04-01 19:48:00,
2013-04-01 15:53:00,54.4,38.1,29.70,NW,308,5.0,17.0,54,0.00,,FEW055,0.00,VWS V14.00,2013-04-01 19:53:00,
2013-04-01 15:58:00,53.9,37.7,29.70,NNW,335,6.0,18.0,54,0.00,,FEW055,0.00,VWS V14.00,2013-04-01 19:58:00,
2013-04-01 16:00:00,53.8,37.6,29.70,West,276,4.0,18.0,54,0.00,,CLR,0.00,VWS V14.00,2013-04-01 20:00:00,
2013-04-01 16:03:00,53.5,36.3,29.71,WNW,297,7.0,23.0,52,0.00,,OVC085,0.00,VWS V14.00,2013-04-01 20:03:00,
2013-04-01 16:08:00,52.7,36.5,29.71,NNW,337,6.0,23.0,54,0.00,,OVC085,0.00,VWS V14.00,2013-04-01 20:08:00,
2013-04-01 16:14:00,51.7,36.5,29.72,NW,307,10.0,23.0,56,0.00,,OVC085,0.00,VWS V14.00,2013-04-01 20:14:00,
2013-04-01 16:19:00,50.6,37.2,29.73,WNW,300,9.0,23.0,60,0.00,,OVC085,0.00,VWS V14.00,2013-04-01 20:19:00,
2013-04-01 16:24:00,49.9,37.4,29.73,NW,315,9.0,23.0,62,0.00,,OVC085,0.00,VWS V14.00,2013-04-01 20:24:00,
2013-04-01 16:29:00,49.7,37.6,29.73,West,269,5.0,23.0,63,0.00,,OVC085,0.00,VWS V14.00,2013-04-01 20:29:00,
2013-04-01 16:30:00,49.6,37.9,29.73,WNW,288,5.0,23.0,64,0.00,,CLR,0.00,VWS V14.00,2013-04-01 20:30:00,
2013-04-01 16:34:00,49.1,37.9,29.73,NNW,330,8.0,13.0,65,0.00,,OVC085,0.00,VWS V14.00,2013-04-01 20:34:00,
2013-04-01 16:40:00,48.9,37.7,29.73,NW,307,6.0,13.0,65,0.00,,OVC085,0.00,VWS V14.00,2013-04-01 20:40:00,
2013-04-01 16:45:00,49.0,37.0,29.73,WNW,298,13.0,15.0,63,0.00,,OVC085,0.00,VWS V14.00,2013-04-01 20:45:00,
2013-04-01 16:50:00,48.9,36.9,29.73,SSW,208,2.0,19.0,63,0.00,,OVC085,0.00,VWS V14.00,2013-04-01 20:50:00,
2013-04-01 16:55:00,49.0,37.0,29.73,NW,321,7.0,19.0,63,0.00,,OVC085,0.00,VWS V14.00,2013-04-01 20:55:00,
2013-04-01 17:00:00,49.2,37.6,29.73,NW,326,3.0,9.0,64,0.00,,OVC085,0.00,VWS V14.00,2013-04-01 21:00:00,
2013-04-01 17:06:00,49.3,36.8,29.74,NE,44,3.0,14.0,62,0.00,,OVC075,0.00,VWS V14.00,2013-04-01 21:06:00,
2013-04-01 17:11:00,49.2,37.2,29.74,WNW,302,11.0,14.0,63,0.00,,OVC075,0.00,VWS V14.00,2013-04-01 21:11:00,
2013-04-01 17:16:00,48.9,36.5,29.74,NW,305,5.0,21.0,62,0.00,,OVC075,0.00,VWS V14.00,2013-04-01 21:16:00,
2013-04-01 17:21:00,48.7,35.5,29.74,NW,323,7.0,21.0,60,0.00,,OVC075,0.00,VWS V14.00,2013-04-01 21:21:00,
2013-04-01 17:26:00,49.3,35.2,29.74,NW,309,5.0,21.0,58,0.00,,OVC075,0.00,VWS V14.00,2013-04-01 21:26:00,
2013-04-01 17:30:00,49.6,35.9,29.74,NNW,333,7.0,21.0,59,0.00,,CLR,0.00,VWS V14.00,2013-04-01 21:30:00,
2013-04-01 17:32:00,49.6,34.6,29.73,WNW,300,2.0,8.0,56,0.00,,OVC075,0.00,VWS V14.00,2013-04-01 21:32:00,
2013-04-01 17:37:00,49.6,34.1,29.73,WNW,287,6.0,9.0,55,0.00,,OVC075,0.00,VWS V14.00,2013-04-01 21:37:00,
2013-04-01 17:42:00,49.6,34.1,29.73,NW,318,2.0,9.0,55,0.00,,OVC075,0.00,VWS V14.00,2013-04-01 21:42:00,
2013-04-01 17:47:00,49.7,34.2,29.73,NW,320,3.0,9.0,55,0.00,,OVC075,0.00,VWS V14.00,2013-04-01 21:47:00,
2013-04-01 17:52:00,49.8,33.4,29.73,NW,304,3.0,9.0,53,0.00,,OVC075,0.00,VWS V14.00,2013-04-01 21:52:00,
2013-04-01 17:57:00,50.4,32.5,29.74,WSW,240,8.0,13.0,50,0.00,,OVC075,0.00,VWS V14.00,2013-04-01 21:57:00,
2013-04-01 18:00:00,50.7,31.2,29.74,WNW,296,5.0,14.0,47,0.00,,CLR,0.00,VWS V14.00,2013-04-01 22:00:00,
2013-04-01 18:03:00,51.2,28.9,29.74,NW,316,10.0,17.0,42,0.00,,SCT120,0.00,VWS V14.00,2013-04-01 22:03:00,
2013-04-01 18:08:00,51.8,29.5,29.74,NNW,345,9.0,17.0,42,0.00,,SCT120,0.00,VWS V14.00,2013-04-01 22:08:00,
2013-04-01 18:13:00,51.8,27.6,29.75,NNW,330,11.0,17.0,39,0.00,,SCT120,0.00,VWS V14.00,2013-04-01 22:13:00,
2013-04-01 18:18:00,51.6,27.5,29.75,WNW,289,5.0,17.0,39,0.00,,SCT120,0.00,VWS V14.00,2013-04-01 22:18:00,
2013-04-01 18:24:00,51.4,27.3,29.75,West,264,3.0,17.0,39,0.00,,SCT120,0.00,VWS V14.00,2013-04-01 22:24:00,
2013-04-01 18:29:00,51.1,26.4,29.76,NW,304,9.0,18.0,38,0.00,,SCT120,0.00,VWS V14.00,2013-04-01 22:29:00,
2013-04-01 18:30:00,51.0,26.3,29.76,NNW,328,10.0,18.0,38,0.00,,CLR,0.00,VWS V14.00,2013-04-01 22:30:00,
2013-04-01 18:34:00,50.9,26.2,29.76,NW,320,5.0,14.0,38,0.00,,SCT120,0.00,VWS V14.00,2013-04-01 22:34:00,
2013-04-01 18:39:00,50.9,26.2,29.76,NW,320,4.0,19.0,38,0.00,,SCT120,0.00,VWS V14.00,2013-04-01 22:39:00,
2013-04-01 18:45:00,50.7,26.0,29.76,NW,323,6.0,19.0,38,0.00,,SCT120,0.00,VWS V14.00,2013-04-01 22:45:00,
2013-04-01 18:50:00,50.4,25.1,29.77,WNW,288,6.0,19.0,37,0.00,,SCT120,0.00,VWS V14.00,2013-04-01 22:50:00,
2013-04-01 18:55:00,50.1,24.2,29.77,WNW,297,9.0,19.0,36,0.00,,SCT120,0.00,VWS V14.00,2013-04-01 22:55:00,
2013-04-01 19:00:00,49.8,23.9,29.77,NW,307,5.0,9.0,36,0.00,,SCT120,0.00,VWS V14.00,2013-04-01 23:00:00,
2013-04-01 19:05:00,49.5,24.3,29.77,NW,320,7.0,14.0,37,0.00,,CLR,0.00,VWS V14.00,2013-04-01 23:05:00,
2013-04-01 19:10:00,49.2,24.1,29.78,WNW,298,6.0,16.0,37,0.00,,CLR,0.00,VWS V14.00,2013-04-01 23:10:00,
2013-04-01 19:15:00,48.9,23.8,29.78,NW,321,7.0,16.0,37,0.00,,CLR,0.00,VWS V14.00,2013-04-01 23:15:00,
2013-04-01 19:21:00,48.5,23.4,29.79,NW,314,3.0,16.0,37,0.00,,CLR,0.00,VWS V14.00,2013-04-01 23:21:00,
2013-04-01 19:26:00,48.1,23.1,29.79,NNW,328,11.0,16.0,37,0.00,,CLR,0.00,VWS V14.00,2013-04-01 23:26:00,
2013-04-01 19:30:00,48.0,23.0,29.79,NW,326,3.0,16.0,37,0.00,,CLR,0.00,VWS V14.00,2013-04-01 23:30:00,
2013-04-01 19:32:00,47.9,22.9,29.79,WNW,289,2.0,15.0,37,0.00,,CLR,0.00,VWS V14.00,2013-04-01 23:32:00,
2013-04-01 19:37:00,47.7,22.1,29.80,NNW,330,3.0,15.0,36,0.00,,CLR,0.00,VWS V14.00,2013-04-01 23:37:00,
2013-04-01 19:42:00,47.5,21.2,29.80,WNW,297,6.0,15.0,35,0.00,,CLR,0.00,VWS V14.00,2013-04-01 23:42:00,
2013-04-01 19:47:00,47.3,21.7,29.81,NW,304,2.0,15.0,36,0.00,,CLR,0.00,VWS V14.00,2013-04-01 23:47:00,
2013-04-01 19:52:00,47.0,20.8,29.81,NW,318,2.0,15.0,35,0.00,,CLR,0.00,VWS V14.00,2013-04-01 23:52:00,
2013-04-01 19:58:00,46.8,21.3,29.81,NW,304,4.0,15.0,36,0.00,,CLR,0.00,VWS V14.00,2013-04-01 23:58:00,
2013-04-01 20:00:00,46.8,20.6,29.82,NW,316,2.0,15.0,35,0.00,,CLR,0.00,VWS V14.00,2013-04-02 00:00:00,
2013-04-01 20:03:00,46.6,20.4,29.82,NW,306,2.0,5.0,35,0.00,,CLR,0.00,VWS V14.00,2013-04-02 00:03:00,
2013-04-01 20:08:00,46.3,20.8,29.82,WNW,289,3.0,6.0,36,0.00,,CLR,0.00,VWS V14.00,2013-04-02 00:08:00,
2013-04-01 20:14:00,46.0,20.6,29.82,WNW,297,3.0,6.0,36,0.00,,CLR,0.00,VWS V14.00,2013-04-02 00:14:00,
2013-04-01 20:19:00,45.7,20.3,29.83,NW,319,2.0,6.0,36,0.00,,CLR,0.00,VWS V14.00,2013-04-02 00:19:00,
2013-04-01 20:24:00,45.4,21.3,29.83,NW,311,0.0,6.0,38,0.00,,CLR,0.00,VWS V14.00,2013-04-02 00:24:00,
2013-04-01 20:29:00,44.9,20.9,29.83,NW,326,2.0,6.0,38,0.00,,CLR,0.00,VWS V14.00,2013-04-02 00:29:00,
2013-04-01 20:30:00,44.9,20.9,29.83,NW,326,1.0,6.0,38,0.00,,CLR,0.00,VWS V14.00,2013-04-02 00:30:00,
2013-04-01 20:35:00,44.6,19.3,29.83,WNW,295,2.0,8.0,36,0.00,,CLR,0.00,VWS V14.00,2013-04-02 00:35:00,
2013-04-01 20:40:00,44.8,18.8,29.83,WNW,288,1.0,8.0,35,0.00,,CLR,0.00,VWS V14.00,2013-04-02 00:40:00,
2013-04-01 20:45:00,44.7,18.8,29.84,North,350,1.0,8.0,35,0.00,,CLR,0.00,VWS V14.00,2013-04-02 00:45:00,
2013-04-01 20:50:00,44.5,17.9,29.84,NW,314,5.0,8.0,34,0.00,,CLR,0.00,VWS V14.00,2013-04-02 00:50:00,
2013-04-01 20:55:00,44.4,17.8,29.84,WNW,298,2.0,8.0,34,0.00,,CLR,0.00,VWS V14.00,2013-04-02 00:55:00,
2013-04-01 21:00:00,44.4,17.1,29.85,NNW,344,3.0,8.0,33,0.00,,CLR,0.00,VWS V14.00,2013-04-02 01:00:00,
2013-04-01 21:01:00,44.5,17.2,29.85,NW,316,2.0,8.0,33,0.00,,CLR,0.00,VWS V14.00,2013-04-02 01:01:00,
2013-04-01 21:07:00,44.3,17.0,29.86,NW,316,4.0,8.0,33,0.00,,CLR,0.00,VWS V14.00,2013-04-02 01:07:00,
2013-04-01 21:12:00,44.0,18.1,29.86,NNE,23,9.0,17.0,35,0.00,,CLR,0.00,VWS V14.00,2013-04-02 01:12:00,
2013-04-01 21:17:00,43.4,18.9,29.87,North,11,8.0,17.0,37,0.00,,CLR,0.00,VWS V14.00,2013-04-02 01:17:00,
2013-04-01 21:22:00,43.0,18.5,29.88,NW,310,5.0,17.0,37,0.00,,CLR,0.00,VWS V14.00,2013-04-02 01:22:00,
2013-04-01 21:27:00,42.7,18.3,29.88,East,83,3.0,17.0,37,0.00,,CLR,0.00,VWS V14.00,2013-04-02 01:27:00,
2013-04-01 21:30:00,42.5,19.3,29.88,NW,323,7.0,19.0,39,0.00,,CLR,0.00,VWS V14.00,2013-04-02 01:30:00,
2013-04-01 21:32:00,42.2,19.0,29.89,NNW,341,3.0,8.0,39,0.00,,CLR,0.00,VWS V14.00,2013-04-02 01:32:00,
2013-04-01 21:38:00,41.9,18.8,29.89,NNE,20,2.0,9.0,39,0.00,,CLR,0.00,VWS V14.00,2013-04-02 01:38:00,
2013-04-01 21:43:00,41.5,19.0,29.89,East,92,2.0,10.0,40,0.00,,CLR,0.00,VWS V14.00,2013-04-02 01:43:00,
2013-04-01 21:48:00,41.2,18.7,29.89,North,9,4.0,10.0,40,0.00,,CLR,0.00,VWS V14.00,2013-04-02 01:48:00,
2013-04-01 21:53:00,41.0,18.0,29.90,North,9,6.0,10.0,39,0.00,,CLR,0.00,VWS V14.00,2013-04-02 01:53:00,
2013-04-01 21:58:00,40.8,18.4,29.90,North,355,2.0,10.0,40,0.00,,CLR,0.00,VWS V14.00,2013-04-02 01:58:00,
2013-04-01 22:00:00,40.7,18.3,29.90,ENE,69,7.0,10.0,40,0.00,,CLR,0.00,VWS V14.00,2013-04-02 02:00:00,
2013-04-01 22:04:00,40.5,17.5,29.90,North,354,3.0,9.0,39,0.00,,CLR,0.00,VWS V14.00,2013-04-02 02:04:00,
2013-04-01 22:09:00,40.5,16.3,29.91,ESE,114,3.0,13.0,37,0.00,,CLR,0.00,VWS V14.00,2013-04-02 02:09:00,
2013-04-01 22:14:00,40.4,16.2,29.91,NW,315,6.0,16.0,37,0.00,,CLR,0.00,VWS V14.00,2013-04-02 02:14:00,
2013-04-01 22:19:00,40.2,15.4,29.91,NNE,17,4.0,16.0,36,0.00,,CLR,0.00,VWS V14.00,2013-04-02 02:19:00,
2013-04-01 22:24:00,39.9,15.8,29.92,NW,309,10.0,16.0,37,0.00,,CLR,0.00,VWS V14.00,2013-04-02 02:24:00,
2013-04-01 22:29:00,39.7,14.9,29.92,NW,319,9.0,16.0,36,0.00,,CLR,0.00,VWS V14.00,2013-04-02 02:29:00,
2013-04-01 22:30:00,39.7,14.9,29.92,NNW,340,7.0,16.0,36,0.00,,CLR,0.00,VWS V14.00,2013-04-02 02:30:00,
2013-04-01 22:35:00,39.5,15.4,29.92,NNE,23,5.0,9.0,37,0.00,,CLR,0.00,VWS V14.00,2013-04-02 02:35:00,
2013-04-01 22:40:00,39.2,15.1,29.93,North,11,4.0,10.0,37,0.00,,CLR,0.00,VWS V14.00,2013-04-02 02:40:00,
2013-04-01 22:45:00,39.0,14.9,29.93,NNW,331,3.0,10.0,37,0.00,,CLR,0.00,VWS V14.00,2013-04-02 02:45:00,
2013-04-01 22:50:00,38.8,14.8,29.93,NNW,330,8.0,10.0,37,0.00,,CLR,0.00,VWS V14.00,2013-04-02 02:50:00,
2013-04-01 22:55:00,38.6,14.6,29.93,NNW,333,2.0,12.0,37,0.00,,CLR,0.00,VWS V14.00,2013-04-02 02:55:00,
2013-04-01 23:00:00,38.4,14.4,29.93,North,352,3.0,4.0,37,0.00,,CLR,0.00,VWS V14.00,2013-04-02 03:00:00,
2013-04-01 23:05:00,38.2,14.2,29.93,NW,313,4.0,9.0,37,0.00,,CLR,0.00,VWS V14.00,2013-04-02 03:05:00,
2013-04-01 23:11:00,38.0,14.1,29.94,NW,311,1.0,9.0,37,0.00,,CLR,0.00,VWS V14.00,2013-04-02 03:11:00,
2013-04-01 23:16:00,37.7,13.8,29.94,NW,326,2.0,9.0,37,0.00,,CLR,0.00,VWS V14.00,2013-04-02 03:16:00,
2013-04-01 23:21:00,37.6,14.3,29.94,NNW,328,3.0,9.0,38,0.00,,CLR,0.00,VWS V14.00,2013-04-02 03:21:00,
2013-04-01 23:26:00,37.5,14.8,29.95,NW,316,3.0,9.0,39,0.00,,CLR,0.00,VWS V14.00,2013-04-02 03:26:00,
2013-04-01 23:30:00,37.2,13.9,29.94,NNW,340,6.0,10.0,38,0.00,,CLR,0.00,VWS V14.00,2013-04-02 03:30:00,
2013-04-01 23:31:00,37.2,13.9,29.94,NW,316,2.0,8.0,38,0.00,,CLR,0.00,VWS V14.00,2013-04-02 03:31:00,
2013-04-01 23:37:00,37.1,13.9,29.95,NNW,340,1.0,8.0,38,0.00,,CLR,0.00,VWS V14.00,2013-04-02 03:37:00,
2013-04-01 23:42:00,36.9,14.3,29.95,NNW,338,2.0,8.0,39,0.00,,CLR,0.00,VWS V14.00,2013-04-02 03:42:00,
2013-04-01 23:47:00,36.7,13.5,29.95,NNW,331,3.0,8.0,38,0.00,,CLR,0.00,VWS V14.00,2013-04-02 03:47:00,
2013-04-01 23:52:00,36.6,13.4,29.95,NNW,329,4.0,8.0,38,0.00,,CLR,0.00,VWS V14.00,2013-04-02 03:52:00,
2013-04-01 23:57:00,36.4,13.8,29.95,NNW,328,2.0,8.0,39,0.00,,CLR,0.00,VWS V14.00,2013-04-02 03:57:00,